Time,TemperatureF,DewpointF,PressureIn,WindDirection,WindDirectionDegrees,WindSpeedMPH,WindSpeedGustMPH,Humidity,HourlyPrecipIn,Conditions,Clouds,dailyrainin,SolarRadiationWatts/m^2,SoftwareType,DateUTC
2013-08-21 00:21:00,70.0,46.0,30.10,East,85,4.0,7.0,43,-99.99,,,0.00,0.000000,,2013-08-21 07:21:00,
2013-08-21 00:32:00,70.0,46.0,30.10,East,85,4.0,7.0,43,-99.99,,,0.00,0.000000,,2013-08-21 07:32:00,
2013-08-21 01:22:00,68.0,48.0,30.11,East,95,6.0,9.0,49,-99.99,,,0.00,0.000000,,2013-08-21 08:22:00,
2013-08-21 01:32:00,68.0,48.0,30.11,East,95,6.0,9.0,49,-99.99,,,0.00,0.000000,,2013-08-21 08:32:00,
2013-08-21 02:22:00,69.0,50.0,30.09,ENE,77,3.0,7.0,50,-99.99,,,0.00,0.000000,,2013-08-21 09:22:00,
2013-08-21 02:33:00,69.0,50.0,30.09,ENE,77,3.0,7.0,50,-99.99,,,0.00,0.000000,,2013-08-21 09:33:00,
2013-08-21 03:23:00,65.0,53.0,30.09,East,87,5.0,7.0,64,-99.99,,,0.00,0.000000,,2013-08-21 10:23:00,
2013-08-21 03:33:00,65.0,53.0,30.09,East,87,5.0,7.0,64,-99.99,,,0.00,0.000000,,2013-08-21 10:33:00,
2013-08-21 03:43:00,65.0,53.0,30.09,East,87,5.0,7.0,64,-99.99,,,0.00,0.000000,,2013-08-21 10:43:00,
2013-08-21 03:52:00,65.0,53.0,30.09,East,87,5.0,7.0,64,-99.99,,,0.00,0.000000,,2013-08-21 10:52:00,
2013-08-21 04:22:00,66.0,50.0,30.09,East,93,4.0,6.0,57,0.00,,,0.00,0.000000,,2013-08-21 11:22:00,
2013-08-21 04:33:00,66.0,50.0,30.09,East,93,4.0,6.0,57,0.00,,,0.00,0.000000,,2013-08-21 11:33:00,
2013-08-21 05:22:00,69.0,52.0,30.08,SE,131,3.0,5.0,54,-99.99,,,0.00,0.000000,,2013-08-21 12:22:00,
2013-08-21 05:32:00,69.0,52.0,30.08,SE,131,3.0,5.0,54,-99.99,,,0.00,0.000000,,2013-08-21 12:32:00,
2013-08-21 10:53:00,88.0,46.0,30.13,SSW,207,4.0,8.0,23,0.00,,,0.00,445.000000,,2013-08-21 17:53:00,
2013-08-21 12:52:00,95.0,38.0,30.13,North,11,4.0,16.0,14,0.00,,,-99.99,753.000000,,2013-08-21 19:52:00,
2013-08-21 14:21:00,93.0,33.0,30.11,WNW,289,13.0,19.0,12,0.00,,,0.00,843.000000,,2013-08-21 21:21:00,
2013-08-21 14:34:00,93.0,33.0,30.11,WNW,289,13.0,19.0,12,0.00,,,0.00,843.000000,,2013-08-21 21:34:00,
2013-08-21 14:44:00,93.0,33.0,30.11,WNW,289,13.0,19.0,12,0.00,,,0.00,843.000000,,2013-08-21 21:44:00,
2013-08-21 15:24:00,92.0,38.0,30.10,WNW,289,13.0,20.0,15,0.00,,,0.00,766.000000,,2013-08-21 22:24:00,
2013-08-21 15:34:00,92.0,38.0,30.10,WNW,289,13.0,20.0,15,0.00,,,0.00,766.000000,,2013-08-21 22:34:00,
2013-08-21 16:22:00,92.0,42.0,30.08,WNW,288,10.0,16.0,18,0.00,,,0.00,603.000000,,2013-08-21 23:22:00,
2013-08-21 16:34:00,92.0,42.0,30.08,WNW,288,10.0,16.0,18,0.00,,,0.00,603.000000,,2013-08-21 23:34:00,
2013-08-21 16:42:00,92.0,42.0,30.08,WNW,288,10.0,16.0,18,0.00,,,0.00,603.000000,,2013-08-21 23:42:00,
2013-08-21 16:52:00,92.0,42.0,30.08,WNW,288,10.0,16.0,18,0.00,,,0.00,603.000000,,2013-08-21 23:52:00,
2013-08-21 17:21:00,96.0,41.0,30.07,WNW,290,3.0,15.0,15,0.00,,,0.00,359.000000,,2013-08-22 00:21:00,
2013-08-21 17:32:00,96.0,41.0,30.07,WNW,290,3.0,15.0,15,0.00,,,0.00,359.000000,,2013-08-22 00:32:00,
2013-08-21 17:42:00,96.0,41.0,30.07,WNW,290,3.0,15.0,15,0.00,,,0.00,359.000000,,2013-08-22 00:42:00,
2013-08-21 17:52:00,96.0,41.0,30.07,WNW,290,3.0,15.0,15,0.00,,,0.00,359.000000,,2013-08-22 00:52:00,
2013-08-21 18:22:00,91.0,44.0,30.07,NNW,329,3.0,7.0,20,0.00,,,0.00,68.000000,,2013-08-22 01:22:00,
2013-08-21 18:32:00,91.0,44.0,30.07,NNW,329,3.0,7.0,20,0.00,,,0.00,68.000000,,2013-08-22 01:32:00,
2013-08-21 18:42:00,91.0,44.0,30.07,NNW,329,3.0,7.0,20,0.00,,,0.00,68.000000,,2013-08-22 01:42:00,
2013-08-21 18:52:00,91.0,44.0,30.07,NNW,329,3.0,7.0,20,0.00,,,0.00,68.000000,,2013-08-22 01:52:00,
2013-08-21 19:22:00,84.0,51.0,30.07,ENE,62,5.0,10.0,32,0.00,,,0.00,0.000000,,2013-08-22 02:22:00,
2013-08-21 19:32:00,84.0,51.0,30.07,ENE,62,5.0,10.0,32,0.00,,,0.00,0.000000,,2013-08-22 02:32:00,
2013-08-21 19:43:00,84.0,51.0,30.07,ENE,62,5.0,10.0,32,0.00,,,0.00,0.000000,,2013-08-22 02:43:00,
2013-08-21 19:52:00,84.0,51.0,30.07,ENE,62,5.0,10.0,32,0.00,,,0.00,0.000000,,2013-08-22 02:52:00,
2013-08-21 20:22:00,77.0,49.0,30.08,East,89,3.0,10.0,37,0.00,,,0.00,0.000000,,2013-08-22 03:22:00,
2013-08-21 20:34:00,77.0,49.0,30.08,East,89,3.0,10.0,37,0.00,,,0.00,0.000000,,2013-08-22 03:34:00,
2013-08-21 20:45:00,77.0,49.0,30.08,East,89,3.0,10.0,37,0.00,,,0.00,0.000000,,2013-08-22 03:45:00,
2013-08-21 20:54:00,77.0,49.0,30.08,East,89,3.0,10.0,37,0.00,,,0.00,0.000000,,2013-08-22 03:54:00,
2013-08-21 21:23:00,72.0,48.0,30.10,East,81,4.0,9.0,42,0.00,,,0.00,0.000000,,2013-08-22 04:23:00,
2013-08-21 21:34:00,72.0,48.0,30.10,East,81,4.0,9.0,42,0.00,,,0.00,0.000000,,2013-08-22 04:34:00,
2013-08-21 21:44:00,72.0,48.0,30.10,East,81,4.0,9.0,42,0.00,,,0.00,0.000000,,2013-08-22 04:44:00,
2013-08-21 21:54:00,72.0,48.0,30.10,East,81,4.0,9.0,42,0.00,,,0.00,0.000000,,2013-08-22 04:54:00,
2013-08-21 22:22:00,74.0,46.0,30.11,NE,47,8.0,14.0,37,0.00,,,0.00,0.000000,,2013-08-22 05:22:00,
2013-08-21 22:34:00,74.0,46.0,30.11,NE,47,8.0,14.0,37,0.00,,,0.00,0.000000,,2013-08-22 05:34:00,
2013-08-21 22:43:00,74.0,46.0,30.11,NE,47,8.0,14.0,37,0.00,,,0.00,0.000000,,2013-08-22 05:43:00,
2013-08-21 22:52:00,74.0,46.0,30.11,NE,47,8.0,14.0,37,0.00,,,0.00,0.000000,,2013-08-22 05:52:00,
2013-08-21 23:22:00,76.0,38.0,30.12,East,92,4.0,13.0,25,0.00,,,0.00,0.000000,,2013-08-22 06:22:00,
2013-08-21 23:32:00,76.0,38.0,30.12,East,92,4.0,13.0,25,0.00,,,0.00,0.000000,,2013-08-22 06:32:00,